Powrót do katalogu

COSMOS 2499 DEB

AktywnyPO
NORAD 60617·DEBRIS·🇷🇺 Russia

Wystrzelony May 23, 2014 z Plesetsk Cosmodrome

Loading…

Następne Przeloty (najbliższe 24 godziny)

TLE

ŚwieżeSource: Space-Track

Epoka: Sep 12, 2026, 19:57 UTC

1 60617U 14028CD  26255.83172522  .00004586  00000-0  91119-2 0  9991
2 60617  82.1828 106.5669 0203031 302.8663  55.3065 13.27394043160637

Śledź COSMOS 2499 DEB w czasie rzeczywistym z AllMySat

Download on the App Store